Simultaneous Nadir Overpasses (SNOs) Predictions

Prediction of SNOs between AQUA and GOES-15 Satellite Orbit:

Table of predicted SNOs for the next 14.0 days since TLE Epoch: 5/20/2023
Index Date Time (AQUA) AQUA Lat,Lon GOES-15 Lat,Lon Distance(km) Time Diff (sec)
1 05/21/2023 23:36:32 0.77,-147.11 -0.05,-150.91 432.92 80
2 05/22/2023 11:57:21 0.21,-152.16 0.02,-151.16 113.82 80
3 05/24/2023 11:43:22 -0.65,-148.77 0.04,-152.03 370.85 80
4 05/25/2023 00:04:19 -0.35,-153.86 -0.01,-152.24 183.38 80
5 05/26/2023 23:50:20 0.54,-150.47 -0.03,-153.12 301.06 80
6 05/27/2023 12:11:07 0.48,-155.52 -0.01,-153.36 245.77 80
7 05/29/2023 11:57:08 -0.45,-152.13 0.01,-154.23 238.29 80
8 05/30/2023 00:18:04 -0.58,-157.21 0.02,-154.43 316.25 80
9 06/01/2023 00:04:04 0.32,-153.82 0.01,-155.29 167.08 80
10 06/01/2023 12:24:52 0.68,-158.87 -0.04,-155.53 380.11 80
